Location: Assche-ter-Heiden
(50.9174°N, 4.1574°E)
Time: 13:24:36
(UTC+00:00)

Cosmos 1538 Rocket - Pass Details

Date: 20 January 2020
Orbit: 753 x 791 km, 74.0° (Epoch: 27 February)

Event Time Altitude Azimuth Distance (km) Brightness Sun altitude
Rises 05:26:27 0° 206° (SSW) 3,270 7.1 -19.9°
Reaches altitude 10° 05:28:51 10° 207° (SSW) 2,342 6.3 -19.5°
Maximum altitude 05:34:11 81° 295° (WNW) 798 3.9 -18.7°
Drops below altitude 10° 05:39:31 10° 23° (NNE) 2,335 6.7 -17.8°
Sets 05:41:54 0° 25° (NNE) 3,260 7.4 -17.5°
